[[{"header":{"parameterUnit":"m.s-1","parameterCategory":1,"la1":30.2991,"la2":30.254,"lo1":-89.0895,"lo2":-89.0444,"dx":0.0017,"dy":0.0017,"nx":28,"ny":28,"refTime":"2023-02-06T15:00:00:Z","depth":0,"parameterNumber":2,"parameterNumberName":"U-component_of_WINDS"},"data":[0,0,0,0,0,0,0,0,0,0,0,0,0,0,0,0,0,0,0,0,0,0,0,0,0,0,0,0,0,0,0,0,0,0,0,0,0,0,0,0,0,0,0,0,0,0,0,0,0,0,0,0,0,0,0,0,0,0,-5.1319,-5.132,0,-5.1473,-5.1475,-5.1477,-5.1502,-5.1501,-5.15,-5.1498,-5.1652,-5.1657,-5.1662,0,0,0,0,0,0,0,0,0,0,0,0,0,-5.104,-5.1045,-5.1318,-5.132,-5.1322,-5.1473,-5.1475,-5.1477,-5.1503,-5.1501,-5.1499,-5.1498,-5.165,-5.1656,-5.1662,0,0,0,0,0,0,0,0,0,0,0,0,0,-5.1175,-5.1047,-5.1318,-5.1353,-5.1358,-5.1473,-5.1475,-5.1478,-5.1503,-5.1501,-5.1499,-5.1497,-5.1648,-5.1655,-5.1663,-5.1752,0,0,-5.1688,-5.1691,0,0,0,0,0,0,0,0,-5.1167,-5.1185,-5.1346,-5.1351,-5.1356,-5.1467,-5.1433,-5.157,-5.1503,-5.1448,-5.1498,-5.1496,-5.1591,-5.1604,-5.1637,-5.176,-5.1766,-5.1688,-5.1693,-5.1697,-5.1699,0,0,0,0,0,0,0,-5.1158,-5.1178,-5.138,-5.1348,-5.1355,-5.136,-5.1377,-5.1459,-5.1528,-5.1452,-5.1455,-5.1473,-5.1594,-5.1629,-5.1641,-5.1768,-5.1688,-5.1695,-5.17,-5.1703,-5.1973,-5.1975,0,0,0,0,0,0,-5.1143,-5.117,-5.1375,-5.1384,-5.1255,-5.1367,-5.1385,-5.1433,-5.1528,-5.154,-5.1474,-5.1473,-5.1617,-5.1631,-5.1646,-5.1757,-5.1697,-5.1704,-5.1709,-5.197,-5.1973,-5.1976,0,0,0,0,0,0,-5.1137,-5.1161,-5.1368,-5.1278,-5.1305,-5.1373,-5.1427,-5.1437,-5.1473,-5.1545,-5.1556,-5.1498,-5.1616,-5.1635,-5.1726,-5.1762,-5.1708,-5.1715,-5.1967,-5.1971,-5.1974,-5.1978,0,0,0,0,0,0,-5.1128,-5.1158,-5.1193,-5.1279,-5.131,-5.1447,-5.1429,-5.1442,-5.1487,-5.1487,-5.157,-5.1582,-5.1616,-5.1714,-5.1734,-5.1772,-5.1721,-5.1964,-5.1969,-5.1973,-5.1975,-5.1981,-5.1987,0,0,0,0,0,-5.1118,-5.1187,-5.1195,-5.122,-5.1355,-5.1449,-5.1466,-5.1505,-5.149,-5.1525,-5.1572,-5.1579,-5.1756,-5.1723,-5.1746,-5.1787,-5.1962,-5.1968,-5.1973,-5.1972,-5.198,-5.1986,0,0,0,0,0,0,-5.1101,-5.1199,-5.1209,-5.1307,-5.137,-5.1453,-5.1499,-5.1512,-5.1579,-5.1576,-5.162,-5.1639,-5.1728,-5.1767,-5.1729,-5.1879,-5.1858,-5.1868,-5.1849,-5.1857,-5.1863,-5.185,-5.1728,0,0,0,0,0,-5.111,-5.1179,-5.126,-5.1339,-5.137,-5.1429,-5.1471,-5.1497,-5.1562,-5.1588,-5.1641,-5.1703,-5.1773,-5.1818,-5.1886,-5.1982,-5.2,-5.2021,-5.2027,-5.2031,-5.2039,-5.2092,-5.2103,-5.1993,-5.1993,-5.1993,0,0,-5.1126,-5.1188,-5.1228,-5.1337,-5.1388,-5.1458,-5.1451,-5.1525,-5.1576,-5.1599,-5.1688,-5.173,-5.1802,-5.1897,-5.1941,-5.1932,-5.2074,-5.2038,-5.2041,-5.2046,-5.2099,-5.2109,-5.2118,-5.1997,-5.1996,-5.1995,0,0,-5.1191,-5.1246,-5.1318,-5.1371,-5.145,-5.1489,-5.1507,-5.1589,-5.1618,-5.1709,-5.1728,-5.179,-5.1909,-5.196,-5.2001,-5.2089,-5.2098,-5.211,-5.214,-5.2192,-5.22,-5.2208,-5.2238,-5.2249,-5.2118,-5.2118,-5.2118,0,-5.1201,-5.1308,-5.1352,-5.1426,-5.1473,-5.15,-5.1573,-5.1621,-5.1717,-5.1749,-5.1738,-5.189,-5.194,-5.2047,-5.2068,-5.2102,-5.2122,-5.21,-5.2196,-5.2204,-5.2212,-5.2241,-5.2253,-5.2119,-5.2119,-5.2119,-5.2119,0,-5.1316,-5.139,-5.1439,-5.1534,-5.1587,-5.1659,-5.1713,-5.1761,-5.1783,-5.1823,-5.1916,-5.1978,-5.206,-5.2087,-5.2108,-5.2197,-5.2189,-5.2187,-5.2166,-5.2222,-5.2251,-5.2262,-5.212,-5.212,-5.212,-5.2119,0,0,-5.1371,-5.1493,-5.1509,-5.1553,-5.1644,-5.1702,-5.1776,-5.1858,-5.1897,-5.1964,-5.2026,-5.2128,-5.2127,-5.2175,-5.2202,-5.2247,-5.2312,-5.224,-5.2242,-5.225,-5.2414,-5.2413,-5.2425,-5.232,-5.2323,-5.2325,-5.2407,0,-5.1446,-5.1581,-5.1624,-5.1735,-5.1804,-5.1832,-5.1897,-5.1959,-5.1999,-5.2062,-5.2107,-5.2178,-5.2172,-5.22,-5.2247,-5.2294,-5.2345,-5.229,-5.2377,-5.2379,-5.2355,-5.2441,-5.244,-5.2514,-5.2419,-5.242,-5.2422,0,-5.155,-5.1621,-5.174,-5.1824,-5.1854,-5.1912,-5.1991,-5.2052,-5.2123,-5.2149,-5.2203,-5.2228,-5.2305,-5.2283,-5.2389,-5.235,-5.2389,-5.2418,-5.2422,-5.2429,-5.2402,-5.2448,-5.2539,-5.255,-5.244,-5.2438,-5.2437,0,-5.1577,-5.1702,-5.179,-5.1827,-5.1927,-5.1966,-5.201,-5.2079,-5.2126,-5.2195,-5.2226,-5.2303,-5.2344,-5.2402,-5.2446,-5.2426,-5.2549,-5.253,-5.2572,-5.257,-5.2594,-5.2591,-5.269,-5.2622,-5.2622,-5.2622,-5.2622,0,-5.1654,-5.1726,-5.1803,-5.1857,-5.1938,-5.1987,-5.2065,-5.211,-5.2172,-5.2234,-5.2263,-5.232,-5.2376,-5.244,-5.2475,-5.2558,-5.2577,-5.2599,-5.2607,-5.2595,-5.2592,-5.2619,-5.2614,-5.2625,-5.2624,-5.2624,-5.2623,0,-5.1696,-5.1752,-5.1849,-5.1937,-5.1961,-5.2016,-5.2091,-5.2144,-5.2187,-5.2265,-5.2286,-5.2352,-5.243,-5.2481,-5.2579,-5.2603,-5.2692,-5.27,-5.2669,-5.2672,-5.271,-5.2705,-5.2828,-5.2846,-5.2768,-5.2768,-5.2769,0,-5.1741,-5.1797,-5.1892,-5.1937,-5.1981,-5.2052,-5.2101,-5.2153,-5.2202,-5.2289,-5.2331,-5.2411,-5.2477,-5.26,-5.2656,-5.2732,-5.274,-5.2778,-5.2751,-5.2738,-5.2739,-5.2734,-5.2739,-5.2781,-5.2782,-5.2782,-5.2783,0,-5.1814,-5.1839,-5.1909,-5.199,-5.2048,-5.2114,-5.2179,-5.2214,-5.2276,-5.233,-5.2411,-5.2463,-5.2565,-5.2644,-5.2725,-5.2768,-5.2785,-5.2792,-5.2805,-5.2792,-5.2771,-5.2781,-5.2678,-5.2787,-5.2787,-5.2787,-5.2786,-5.2786,-5.1857,-5.1908,-5.1984,-5.2062,-5.2117,-5.2178,-5.2232,-5.2283,-5.2352,-5.244,-5.2467,-5.2551,-5.2622,-5.2734,-5.2779,-5.2844,-5.284,-5.2859,-5.2864,-5.2867,-5.2867,-5.2763,-5.2859,-5.2859,-5.2859,-5.2859,-5.2859,0,-5.193,-5.1981,-5.2052,-5.2144,-5.2205,-5.222,-5.2294,-5.2343,-5.2417,-5.2483,-5.2549,-5.2643,-5.272,-5.2784,-5.2863,-5.2903,-5.2913,-5.2922,-5.2918,-5.2928,-5.2867,-5.2847,-5.2913,-5.2913,-5.2913,-5.2913,-5.2913,-5.2913,-5.1975,-5.2062,-5.2097,-5.2212,-5.2263,-5.2347,-5.2387,-5.2444,-5.2497,-5.26,-5.2665,-5.2708,-5.2773,-5.2858,-5.2929,-5.2946,-5.2973,-5.298,-5.2998,-5.2938,-5.2932,-5.2926,-5.2908,-5.2986,-5.2986,-5.3053,-5.3054,-5.3054]},{"header":{"parameterUnit":"m.s-1","parameterCategory":1,"la1":30.2991,"la2":30.254,"lo1":-89.0895,"lo2":-89.0444,"dx":0.0017,"dy":0.0017,"nx":28,"ny":28,"refTime":"2023-02-06T15:00:00:Z","depth":0,"parameterNumber":3,"parameterNumberName":"V-component_of_WINDS"},"data":[0,0,0,0,0,0,0,0,0,0,0,0,0,0,0,0,0,0,0,0,0,0,0,0,0,0,0,0,0,0,0,0,0,0,0,0,0,0,0,0,0,0,0,0,0,0,0,0,0,0,0,0,0,0,0,0,0,0,2.4102,2.4103,0,2.4165,2.4166,2.4166,2.4199,2.4199,2.4199,2.4199,2.4258,2.4259,2.4261,0,0,0,0,0,0,0,0,0,0,0,0,0,2.4009,2.401,2.4102,2.4103,2.4104,2.4165,2.4166,2.4166,2.4199,2.4199,2.4199,2.4199,2.4257,2.4259,2.4261,0,0,0,0,0,0,0,0,0,0,0,0,0,2.4058,2.4011,2.4102,2.4128,2.4131,2.4165,2.4166,2.4167,2.4199,2.4199,2.4199,2.4199,2.4257,2.4259,2.4261,2.4273,0,0,2.4268,2.4269,0,0,0,0,0,0,0,0,2.4055,2.4061,2.4123,2.4126,2.4129,2.4174,2.4154,2.4202,2.4199,2.4173,2.4199,2.4199,2.4229,2.4234,2.4245,2.4275,2.4278,2.4268,2.4269,2.427,2.4271,0,0,0,0,0,0,0,2.4052,2.4059,2.4127,2.4124,2.4128,2.4135,2.4142,2.4163,2.42,2.4175,2.4178,2.4185,2.4231,2.4243,2.4247,2.4279,2.4268,2.427,2.4271,2.4272,2.4325,2.4325,0,0,0,0,0,0,2.4045,2.4056,2.4125,2.4129,2.4092,2.4137,2.4145,2.416,2.42,2.4206,2.4185,2.4186,2.4239,2.4244,2.4249,2.4268,2.427,2.4272,2.4274,2.4325,2.4325,2.4325,0,0,0,0,0,0,2.4042,2.405,2.4122,2.4093,2.4103,2.4138,2.4155,2.4161,2.4173,2.4207,2.4213,2.419,2.4239,2.4246,2.4268,2.427,2.4273,2.4275,2.4325,2.4325,2.4325,2.4303,0,0,0,0,0,0,2.404,2.405,2.4055,2.4093,2.4104,2.4141,2.4155,2.4162,2.4177,2.418,2.4214,2.422,2.424,2.4264,2.427,2.4273,2.4277,2.4325,2.4325,2.4325,2.4304,2.4302,2.4301,0,0,0,0,0,2.4036,2.4044,2.4055,2.4063,2.4112,2.4141,2.4147,2.4172,2.4177,2.4183,2.4205,2.4218,2.4269,2.4266,2.4273,2.4277,2.4324,2.4325,2.4325,2.4304,2.4303,2.4301,0,0,0,0,0,0,2.4002,2.4049,2.4062,2.4083,2.4108,2.4146,2.4154,2.4169,2.4192,2.4193,2.4221,2.4229,2.4248,2.4264,2.4261,2.4292,2.4298,2.43,2.428,2.4279,2.4278,2.4273,2.4279,0,0,0,0,0,2.3998,2.4019,2.4058,2.4073,2.4085,2.4117,2.4131,2.4148,2.4175,2.4185,2.4209,2.4232,2.4254,2.4267,2.4289,2.4306,2.4315,2.4313,2.4311,2.431,2.4311,2.4324,2.4324,2.4325,2.4325,2.4325,0,0,2.3987,2.4016,2.4027,2.4067,2.4088,2.4109,2.4126,2.4146,2.4162,2.4187,2.421,2.4229,2.4257,2.4278,2.4288,2.4292,2.4313,2.431,2.4309,2.4311,2.4324,2.4324,2.4324,2.4325,2.4325,2.4325,0,0,2.398,2.4003,2.4019,2.4042,2.4075,2.4097,2.4101,2.4138,2.4153,2.4177,2.4197,2.4216,2.4251,2.4272,2.4287,2.4291,2.4305,2.4297,2.429,2.4302,2.4302,2.4302,2.4305,2.4306,2.4298,2.4298,2.4298,0,2.3962,2.3996,2.4025,2.4046,2.4063,2.4091,2.4107,2.4127,2.4165,2.4176,2.418,2.4229,2.4249,2.4276,2.4278,2.4288,2.4294,2.4293,2.43,2.4301,2.4301,2.4304,2.4305,2.4297,2.4297,2.4297,2.4297,0,2.3973,2.3996,2.4005,2.4045,2.4063,2.4081,2.4113,2.4128,2.4145,2.4167,2.4192,2.4218,2.4247,2.4255,2.4269,2.4284,2.4286,2.4295,2.4302,2.43,2.4303,2.4304,2.4295,2.4296,2.4296,2.4296,0,0,2.3944,2.4003,2.4005,2.4025,2.4066,2.4084,2.4104,2.4134,2.4147,2.4173,2.4191,2.4222,2.4232,2.4249,2.4267,2.4278,2.4282,2.4286,2.4287,2.4285,2.4301,2.4295,2.4296,2.4291,2.4292,2.4292,2.4299,0,2.3943,2.3982,2.4011,2.4039,2.4062,2.409,2.4107,2.4134,2.4155,2.4177,2.4199,2.4222,2.4232,2.4243,2.4255,2.4279,2.4285,2.4278,2.4308,2.4308,2.43,2.4297,2.429,2.4296,2.4301,2.4301,2.4301,0,2.3946,2.3975,2.4006,2.4048,2.4058,2.4074,2.4106,2.4126,2.4157,2.4172,2.4193,2.4213,2.4235,2.4241,2.4272,2.4267,2.4281,2.4295,2.4295,2.4299,2.4305,2.4302,2.4298,2.4299,2.4303,2.4303,2.4303,0,2.3923,2.3969,2.3995,2.4011,2.4059,2.407,2.4091,2.4122,2.414,2.4167,2.4179,2.4208,2.4223,2.4245,2.4272,2.4273,2.4301,2.4308,2.4314,2.4313,2.4318,2.4317,2.4317,2.4326,2.4326,2.4326,2.4326,0,2.3919,2.3937,2.3986,2.4002,2.4024,2.4056,2.4077,2.4099,2.4128,2.4148,2.4173,2.4191,2.4225,2.4247,2.4268,2.4292,2.4298,2.4311,2.4316,2.4309,2.4308,2.4318,2.4319,2.4326,2.4326,2.4326,2.4326,0,2.3897,2.393,2.396,2.4006,2.4017,2.4032,2.407,2.4086,2.411,2.4135,2.4143,2.418,2.4208,2.4237,2.4273,2.4288,2.4311,2.4318,2.4301,2.4304,2.4309,2.4308,2.4316,2.4319,2.4325,2.4325,2.4324,0,2.3892,2.3908,2.3956,2.3973,2.3994,2.402,2.4039,2.4073,2.4092,2.4131,2.4142,2.4173,2.4199,2.4242,2.4271,2.43,2.4308,2.4309,2.4312,2.4305,2.4309,2.4308,2.4311,2.4307,2.4307,2.4307,2.4307,0,2.3881,2.3898,2.3926,2.3961,2.3984,2.4012,2.4041,2.4053,2.4092,2.4112,2.4142,2.4163,2.4203,2.4233,2.4266,2.4286,2.4303,2.4306,2.4309,2.4302,2.4292,2.4299,2.4299,2.4305,2.4305,2.4305,2.4305,2.4306,2.3868,2.3885,2.3923,2.3954,2.398,2.4007,2.4026,2.4054,2.4081,2.4118,2.4135,2.4166,2.4199,2.4246,2.4265,2.429,2.4294,2.4298,2.4299,2.43,2.4299,2.4288,2.4295,2.4295,2.4295,2.4296,2.4296,0,2.386,2.3887,2.3915,2.3957,2.3982,2.3999,2.4033,2.4052,2.408,2.411,2.4137,2.4173,2.4203,2.4236,2.4268,2.4281,2.4289,2.4288,2.4287,2.4292,2.4292,2.4287,2.428,2.428,2.428,2.428,2.428,2.428,2.3858,2.3888,2.3909,2.3952,2.3979,2.4011,2.4029,2.4055,2.408,2.412,2.4146,2.4169,2.42,2.4236,2.4264,2.4273,2.4284,2.428,2.4291,2.429,2.4292,2.4293,2.4288,2.4282,2.4282,2.4289,2.4289,2.429]}]]